Muncie, IN

6:19 AM EDT on March 24, 2017 (GMT -0400)
Delaware County-Johnson

Weather History for KMIE - March, 2015

Change the Weather History Date:

Wednesday, March 18, 2015

  Actual Average Record
Temperature  
Mean Temperature 38 °F 40 °F  
Max Temperature 48 °F 50 °F 78 °F (2012)
Min Temperature 27 °F 31 °F 11 °F (1993)
Degree Days  
Heating Degree Days 27 25  
Month to date heating degree days 521 502  
Since 1 July heating degree days 5386 4885  
Cooling Degree Days 0 0  
Month to date cooling degree days 0 0  
Year to date cooling degree days 0 0  
Moisture  
Dew Point 19 °F    
Average Humidity 52    
Maximum Humidity 75    
Minimum Humidity 28    
Precipitation  
Precipitation 0.00 in 0.10 in 0.88 in (1977)
Month to date precipitation 1.72 1.60  
Year to date precipitation 4.66 6.14  
Sea Level Pressure  
Sea Level Pressure 30.31 in    
Wind  
Wind Speed 2 mph (North)    
Max Wind Speed 9 mph    
Max Gust Speed 11 mph    
Visibility 10 miles    
Events      
T = Trace of Precipitation, MM = Missing Value Source: NWS Daily Summary

Daily Weather History Graph

Daily Weather History Graph

Search for Another Location

Airport or City:

Trip Planner

Search our weather history database for the weather conditions in past years. The results will help you decide how hot, cold, wet, or windy it might be!

Date:

Astronomy

Mar. 18, 2015 Rise Set
Actual Time 7:48 AM EDT 7:51 PM EDT
Civil Twilight 7:21 AM EDT 8:18 PM EDT
Nautical Twilight 6:49 AM EDT 8:50 PM EDT
Astronomical Twilight 6:17 AM EDT 9:22 PM EDT
Moon 6:31 AM EDT (3/18) 6:06 PM EDT (3/18)
Length of Visible Light 12h 56m
Length of Day
12h 02m
Waning Crescent, 5% of the Moon is Illuminated
Mar 18
Waning Crescent
Mar 20
New
Mar 27
First Quarter
Apr 4
Full
Apr 11
Last Quarter

Hourly Weather History & Observations

Time (EDT) Temp. Windchill Dew Point Humidity Pressure Visibility Wind Dir Wind Speed Gust Speed Precip Events Conditions
12:53 AM 28.9 °F 25.2 °F 19.0 °F 67% 30.33 in 10.0 mi NW 3.5 mph - N/A   Clear
1:53 AM 28.9 °F 25.2 °F 15.1 °F 56% 30.33 in 10.0 mi West 3.5 mph - N/A   Clear
2:53 AM 30.0 °F - 19.9 °F 66% 30.33 in 10.0 mi Calm Calm - N/A   Clear
3:53 AM 28.0 °F - 21.9 °F 78% 30.32 in 10.0 mi Calm Calm - N/A   Clear
4:53 AM 28.0 °F - 19.0 °F 69% 30.32 in 10.0 mi Calm Calm - N/A   Clear
5:53 AM 27.0 °F 23.0 °F 19.0 °F 72% 30.32 in 10.0 mi NE 3.5 mph - N/A   Clear
6:53 AM 28.0 °F - 19.9 °F 72% 30.33 in 10.0 mi Calm Calm - N/A   Clear
7:53 AM 28.0 °F - 19.9 °F 72% 30.35 in 10.0 mi Calm Calm - N/A   Clear
8:53 AM 30.0 °F 24.1 °F 18.0 °F 61% 30.38 in 10.0 mi WSW 5.8 mph - N/A   Clear
9:53 AM 34.0 °F 31.0 °F 16.0 °F 48% 30.38 in 10.0 mi West 3.5 mph - N/A   Clear
10:53 AM 39.0 °F - 12.9 °F 34% 30.36 in 10.0 mi Calm Calm - N/A   Clear
11:53 AM 41.0 °F 37.1 °F 12.0 °F 31% 30.36 in 10.0 mi ENE 5.8 mph - N/A   Clear
12:53 PM 42.1 °F 38.4 °F 12.9 °F 31% 30.33 in 10.0 mi East 5.8 mph - N/A   Clear
1:53 PM 44.1 °F 40.1 °F 15.1 °F 31% 30.32 in 10.0 mi ENE 6.9 mph - N/A   Clear
2:53 PM 45.0 °F - 14.0 °F 29% 30.28 in 10.0 mi Calm Calm - N/A   Clear
3:53 PM 45.0 °F - 16.0 °F 31% 30.26 in 10.0 mi Calm Calm - N/A   Clear
4:53 PM 46.9 °F - 19.0 °F 33% 30.26 in 10.0 mi NNW 5.8 mph - N/A   Clear
5:53 PM 46.0 °F 43.1 °F 17.1 °F 31% 30.25 in 10.0 mi North 5.8 mph - N/A   Clear
6:53 PM 46.0 °F - 17.1 °F 31% 30.26 in 10.0 mi Calm Calm - N/A   Clear
7:53 PM 43.0 °F 40.3 °F 24.1 °F 47% 30.26 in 10.0 mi NW 4.6 mph - N/A   Clear
8:53 PM 43.0 °F - 21.9 °F 43% 30.25 in 10.0 mi Calm Calm - N/A   Overcast
9:53 PM 42.1 °F - 21.0 °F 43% 30.25 in 10.0 mi Calm Calm - N/A   Overcast
10:53 PM 39.9 °F - 27.0 °F 60% 30.25 in 10.0 mi Calm Calm - N/A   Partly Cloudy
11:53 PM 37.9 °F 35.5 °F 28.0 °F 68% 30.25 in 10.0 mi North 3.5 mph - N/A   Mostly Cloudy